星链-32584 (STARLINK-32584)

导读 | 豆包AI

STARLINK-32584是美国太空探索技术公司(SpaceX)星链星座的成员,于2024年11月30日发射。星链计划旨在构建全球卫星互联网星座,为全球多地提供宽带互联网服务,该卫星的入轨进一步扩充了星链星座的规模,助力其全球组网与服务覆盖能力的提升。

Basic Information
目录编号:
62179
目录名称:
STARLINK-32584
国际标识:
2024-225S
轨道中心:
EARTH
卫星名称:
星链-32584
卫星全名:
星链-32584 (STARLINK-32584)
卫星状态:
在轨 (已飞行470 天)
发射日期:
2024-11-30 UTC
国别 :
美国 (US)
星等 :
--
Orbit Information
数据来源 国际轨道数据 AOE轨道数据
星历时间 2026-03-15T06:49:42+0800
9小时前
查看轨道信息
2026-03-14T08:00:00+0800
1天前
查看轨道信息
半长轴 6950.168km 6950.193km
偏心率 0.0003407 0.0003273
轨道倾角 70.004° 70.004°
近地点辐角 268.367° 275.188°
升交点赤经 151.104° 153.504°
平近点角 91.710° 355.677°
近地点 569.663km 569.781km
远地点 574.399km 574.331km
周期 96.106分钟 96.107分钟
每日圈数 14.983382 14.983301
Detailed Information
固有亮度:
5
最大亮度:
2.5
卫星平台:
Starlink V1.0
覆盖范围:
全球
运营商:
太空探索技术公司
运营商所在国:
美国
制造商(研发单位):
太空探索技术公司
制造商所在国:
美国
使用方式:
暂无
Satellite Introduction
Starlink 计划是 SpaceX 推出的全球卫星互联网项目,通过发射低轨道卫星,为全球尤其是偏远地区提供高速、低延迟的互联网服务。自 2019 年起,Starlink 已部署数千颗卫星,旨在缩小全球数字鸿沟,推动互联网普及。该项目还为军事、航空等行业提供通信支持,带来广泛经济效益。
2D Orbit Map
3D Orbit Map
Orbit Altitude Analysis Chart
Orbit Inclination Analysis Chart
Orbit Comprehensive Analysis Chart
View Comprehensive Chart